2022/12/25 00:00:00,15.8,-0.2
2022/12/25 00:10:00,15.8,-0.2
2022/12/25 00:20:00,15.8,-0.3
2022/12/25 00:30:00,15.7,-0.1
2022/12/25 00:40:00,15.6,-0.1
2022/12/25 00:50:00,15.5,-0.1
2022/12/25 01:00:00,15.5,-0.1
2022/12/25 01:10:00,15.5,-0.2
2022/12/25 01:20:00,15.5,-0.1
2022/12/25 01:30:00,15.4, 0.1
2022/12/25 01:40:00,15.4,-0.2
2022/12/25 01:50:00,15.4, 0.1
2022/12/25 02:00:00,15.4,-0.4
2022/12/25 02:10:00,15.5, 0.0
2022/12/25 02:20:00,15.5,-0.1
2022/12/25 02:30:00,15.4, 0.1
2022/12/25 02:40:00,15.3,-0.1
2022/12/25 02:50:00,15.2,-0.5
2022/12/25 03:00:00,15.2, 0.0
2022/12/25 03:10:00,15.1,-0.1
2022/12/25 03:20:00,15.0,-0.1
2022/12/25 03:30:00,14.9,-0.1
2022/12/25 03:40:00,14.9,-0.2
2022/12/25 03:50:00,14.8, 0.0
2022/12/25 04:00:00,14.8,-0.2
2022/12/25 04:10:00,14.9,-0.3
2022/12/25 04:20:00,15.0,-0.2
2022/12/25 04:30:00,14.9,-0.2
2022/12/25 04:40:00,14.9,-0.2
2022/12/25 04:50:00,14.9, 0.5
2022/12/25 05:00:00,14.8,-0.3
2022/12/25 05:10:00,14.8, 0.0
2022/12/25 05:20:00,14.7,-0.2
2022/12/25 05:30:00,14.6,-0.2
2022/12/25 05:40:00,14.7, 0.0
2022/12/25 05:50:00,14.7,-0.2
2022/12/25 06:00:00,14.8,-0.2
2022/12/25 06:10:00,14.9,-0.2
2022/12/25 06:20:00,14.8,-0.1
2022/12/25 06:30:00,14.8,-0.2
2022/12/25 06:40:00,14.8,-0.2
2022/12/25 06:50:00,14.7,-0.4
2022/12/25 07:00:00,14.6, 0.1
2022/12/25 07:10:00,14.6, 0.4
2022/12/25 07:20:00,14.5, 0.1
2022/12/25 07:30:00,14.4,-0.2
2022/12/25 07:40:00,14.4, 0.1
2022/12/25 07:50:00,14.3, 0.1
2022/12/25 08:00:00,14.2, 0.0
2022/12/25 08:10:00,14.2, 0.1
2022/12/25 08:20:00,14.2, 0.3
2022/12/25 08:30:00,14.1, 0.5
2022/12/25 08:40:00,14.1, 1.2
2022/12/25 08:50:00,13.9, 3.9
2022/12/25 09:00:00,13.6, 5.3
2022/12/25 09:10:00,13.9, 2.1
2022/12/25 09:20:00,13.8, 1.8
2022/12/25 09:30:00,13.7, 2.3
2022/12/25 09:40:00,13.4, 4.7
2022/12/25 09:50:00,13.4, 5.0
2022/12/25 10:00:00,13.2, 3.4
2022/12/25 10:10:00,13.1, 3.3
2022/12/25 10:20:00,13.2, 8.8
2022/12/25 10:30:00,13.0, 6.8
2022/12/25 10:40:00,12.7,11.0
2022/12/25 10:50:00,12.8, 6.3
2022/12/25 11:00:00,12.9, 3.8
2022/12/25 11:10:00,12.6, 4.4
2022/12/25 11:20:00,12.4,11.4
2022/12/25 11:30:00,12.3,12.9
2022/12/25 11:40:00,12.2, 9.2
2022/12/25 11:50:00,11.9, 7.3
2022/12/25 12:00:00,11.9, 8.6
2022/12/25 12:10:00,11.7, 7.2
2022/12/25 12:20:00,11.2, 5.6
2022/12/25 12:30:00,11.0, 8.3
2022/12/25 12:40:00,10.4,11.8
2022/12/25 12:50:00,10.7,13.9
2022/12/25 13:00:00,10.5,13.7
2022/12/25 13:10:00,10.3,14.6
2022/12/25 13:20:00,10.1,12.7
2022/12/25 13:30:00, 9.6,13.6
2022/12/25 13:40:00, 9.5, 9.8
2022/12/25 13:50:00, 9.2, 6.2
2022/12/25 14:00:00, 9.3, 3.7
2022/12/25 14:10:00, 9.0, 3.6
2022/12/25 14:20:00, 8.7, 2.6
2022/12/25 14:30:00, 8.5, 2.5
2022/12/25 14:40:00, 8.4, 2.1
2022/12/25 14:50:00, 8.1, 2.2
2022/12/25 15:00:00, 7.8, 2.0
2022/12/25 15:10:00, 7.7, 1.6
2022/12/25 15:20:00, 7.7, 1.4
2022/12/25 15:30:00, 7.5, 1.3
2022/12/25 15:40:00, 7.0, 0.9
2022/12/25 15:50:00, 6.6, 0.5
2022/12/25 16:00:00, 6.5, 0.5
2022/12/25 16:10:00, 6.3, 0.9
2022/12/25 16:20:00, 6.3, 0.6
2022/12/25 16:30:00, 6.2, 0.5
2022/12/25 16:40:00, 6.1, 0.2
2022/12/25 16:50:00, 6.0, 0.1
2022/12/25 17:00:00, 6.7, 0.0
2022/12/25 17:10:00, 7.6,-0.2
2022/12/25 17:20:00, 7.7,-0.4
2022/12/25 17:30:00, 7.8, 0.0
2022/12/25 17:40:00, 7.8,-0.2
2022/12/25 17:50:00, 7.7,-0.1
2022/12/25 18:00:00, 7.7,-0.2
2022/12/25 18:10:00, 7.7,-0.2
2022/12/25 18:20:00, 7.7,-0.1
2022/12/25 18:30:00, 7.5, 0.1
2022/12/25 18:40:00, 7.3, 0.0
2022/12/25 18:50:00, 7.3, 1.5
2022/12/25 19:00:00, 7.4, 0.3
2022/12/25 19:10:00, 7.4,-0.2
2022/12/25 19:20:00, 7.5, 0.1
2022/12/25 19:30:00, 7.5, 0.4
2022/12/25 19:40:00, 7.5, 0.1
2022/12/25 19:50:00, 7.5, 0.1
2022/12/25 20:00:00, 7.4, 0.1
2022/12/25 20:10:00, 7.3, 0.0
2022/12/25 20:20:00, 7.3, 0.0
2022/12/25 20:30:00, 7.2, 0.1
2022/12/25 20:40:00, 7.2,-0.1
2022/12/25 20:50:00, 7.1, 0.2
2022/12/25 21:00:00, 7.1, 0.2
2022/12/25 21:10:00, 7.1, 0.1
2022/12/25 21:20:00, 7.1, 0.1
2022/12/25 21:30:00, 7.1, 0.1
2022/12/25 21:40:00, 7.0,-0.3
2022/12/25 21:50:00, 7.0, 0.0
2022/12/25 22:00:00, 7.0, 0.0
2022/12/25 22:10:00, 7.1, 0.0
2022/12/25 22:20:00, 7.3, 0.1
2022/12/25 22:30:00, 7.4,-0.2
2022/12/25 22:40:00, 7.4, 0.1
2022/12/25 22:50:00, 7.4,-0.1
2022/12/25 23:00:00, 7.4, 0.0
2022/12/25 23:10:00, 7.4,-0.2
2022/12/25 23:20:00, 7.4, 0.0
2022/12/25 23:30:00, 7.3, 0.2
2022/12/25 23:40:00, 7.3, 0.0
2022/12/25 23:50:00, 7.3,-0.1
